[Iaude] MPEC G35: 2024 GF [a=1.30,e=0.25,i=6.5,H=27.1]

mpec at cfa.harvard.edu mpec at cfa.harvard.edu
Wed Apr 3 18:24:16 EDT 2024


M.P.E.C. 2024-G35                                 Issued 2024 April 3, 22:22 UT

     The Minor Planet Electronic Circulars contain information on unusual
         minor planets, routine data on comets and natural satellites,
         and occasional editorial announcements.  They are published
    on behalf of Division F of the International Astronomical Union by the
          Minor Planet Center, Smithsonian Astrophysical Observatory,
                          Cambridge, MA 02138, U.S.A.
			  
             Prepared using the Tamkin Foundation Computer Network

                              MPC at CFA.HARVARD.EDU
            URL https://www.minorplanetcenter.net/    ISSN 1523-6714

                                    2024 GF                                     


Observations:
     K24G00F*KC2024 04 02.76623812 56 32.729-06 14 15.50         19.0 GXEG035O75
     K24G00F KC2024 04 02.76924812 56 37.971-06 13 21.48         18.9 GXEG035O75
     K24G00F KC2024 04 02.77225712 56 43.287-06 12 27.54         18.7 GXEG035O75
     K24G00F KC2024 04 02.91242813 01 35.22 -05 28 58.3          17.7 GVEG035L01
     K24G00F KC2024 04 02.91391213 01 37.94 -05 28 29.9          17.8 GVEG035L01
     K24G00F KC2024 04 02.91539513 01 40.66 -05 28 02.0          17.9 GVEG035L01
     K24G00F KC2024 04 02.91687713 01 43.37 -05 27 34.4          17.8 GVEG035L01
     K24G00F KC2024 04 02.91835813 01 46.09 -05 27 06.4          18.0 GVEG035L01
     K24G00F KB2024 04 03.04076613 05 40.51 -04 47 26.4          18.7 GXEG035958
     K24G00F KB2024 04 03.04301213 05 44.78 -04 46 42.1          18.3 GXEG035958
     K24G00F KB2024 04 03.04512513 05 48.76 -04 46 00.2          18.2 GXEG035958
     K24G00F KB2024 04 03.04723713 05 52.80 -04 45 17.7          18.4 GXEG035958
     K24G00F KB2024 04 03.04941513 05 56.90 -04 44 34.5          18.4 GXEG035958
     K24G00F KB2024 04 03.19414 13 11 24.542-03 54 56.66         18.8 GVEG035734
     K24G00F KB2024 04 03.19601 13 11 28.248-03 54 19.08         18.6 GVEG035734
     K24G00F KB2024 04 03.19780 13 11 31.846-03 53 41.50         18.3 GVEG035734
     K24G00F  C2024 04 03.20336 13 11 48.41 -03 51 20.5          17.7 VtEG035V27
     K24G00F  C2024 04 03.21005 13 12 01.69 -03 49 00.3          17.9 VtEG035V27
     K24G00F KC2024 04 03.22636213 12 34.69 -03 43 14.9          18.4 GXEG035858
     K24G00F KC2024 04 03.22955113 12 41.08 -03 42 08.1          18.5 GXEG035858
     K24G00F KC2024 04 03.23669413 12 55.40 -03 39 38.3          18.5 GXEG035858
     K24G00F KB2024 04 03.85827613 37 53.18 +00 19 47.6          18.5 GXEG035I93
     K24G00F KB2024 04 03.86108813 38 00.31 +00 20 59.8          18.5 GXEG035I93
     K24G00F KB2024 04 03.86345513 38 06.24 +00 21 59.6          18.7 GXEG035I93
     K24G00F KC2024 04 03.87214213 38 24.45 +00 25 29.6          17.4 GVEG035L06
     K24G00F KC2024 04 03.87395413 38 28.98 +00 26 15.6          17.5 GVEG035L06
     K24G00F KC2024 04 03.87455713 38 30.48 +00 26 30.9          17.6 GVEG035L06
     K24G00F KC2024 04 03.87504113 38 31.70 +00 26 43.0          17.6 GVEG035L06

Observer details:
734 Farpoint Observatory, Eskridge.  Observers D. Cromer, G. Hug, D. Goodin,
    R. Valentine, P. Lessig.  Measurer G. Hug.  0.69-m f/3.54 reflector + CMO.
858 Tebbutt Observatory, Edgewood.  Observer F. B. Zoltowski.  0.51-m f/8.1
    Schmidt-Cassegrain + CCD.
958 Observatoire de Dax.  Observer P. Dupouy.  0.50-m f/4.5 Reflector + CMO.
I93 St Pardon de Conques.  Observer F. Losse.  0.40-m f/3.7 reflector + CCD.
L01 Visnjan Observatory, Tican.  Observers K. Korlevic, L. Poropat.  Measurer
    K. Korlevic.  1.0-m f/2.9 reflector + CCD.
L06 Sormano 2 Observatory, Bellagio Via Lattea.  Observers E. Valli, G.
    Ventre.  Measurer P. Sicoli.  0.36m Schmidt Cassegrain + CCD.
O75 ISON-Hureltogoot Observatory.  Observer L. Elenin.  0.40-m f/2.4 reflector
    + CCD.
V27 North Mesa Observatory, Los Alamos.  Observer B. K. Kendrick.  0.25-m f/6
    reflector + CCD.

Orbital elements:
2024 GF                                                  Earth MOID = 0.0104 AU
Epoch 2024 Mar. 31.0 TT = JDT 2460400.5                 Veres                   
M 336.91894              (2000.0)            P               Q                  
n   0.66688119     Peri.   35.28240     -0.66376516     +0.74749268             
a   1.2974892      Node   193.19510     -0.70964749     -0.64033944             
e   0.2456083      Incl.    6.51350     -0.23625463     -0.17669209             
P   1.48           H   27.15          G   0.15           U   8                  
Residuals in seconds of arc
240402 O75  0.8+  0.0     240403 958  0.4-  0.3-    240403 858  0.1-  0.2-
240402 O75  0.2+  0.5-    240403 958  0.2+  0.3+    240403 I93  0.9+  0.0
240402 O75  0.5+  1.2-    240403 958  0.2-  0.2+    240403 I93  1.4+  0.7+
240402 L01  0.0   0.3-    240403 734  0.0   0.8+    240403 I93  0.8+  0.3+
240402 L01  0.0   0.1+    240403 734  0.3-  0.1-    240403 L06  0.3-  0.0
240402 L01  0.0   0.1+    240403 734  0.0   0.3+    240403 L06  0.2-  0.2-
240402 L01  0.1-  0.3-    240403 V27  1.0+  0.7-    240403 L06  0.3-  0.3-
240402 L01  0.0   0.3-    240403 V27  1.5-  0.7+    240403 L06  0.1-  0.6-
240403 958  0.6-  0.1-    240403 858  0.1+  0.3-
240403 958  0.2-  0.3-    240403 858  0.0   0.2-

Ephemeris:
2024 GF                  a,e,i = 1.30, 0.25, 7                   q = 0.9788
Date    TT    R. A. (2000) Decl.     Delta      r    Elong.  Phase     V
2024 03 04    10 36 53.1 -22 46 18   0.1252  1.1020   150.3    26.5    24.0
...
2024 03 19    10 48 18.5 -22 57 49   0.06587 1.0539   151.5    26.8    22.6
...
2024 03 27    11 16 30.1 -20 07 14   0.03712 1.0318   156.0    23.2    21.2
...
2024 04 02    12 34 53.6 -09 30 18   0.01784 1.0173   174.7     5.2    18.9
2024 04 03    13 04 19.7 -04 53 51   0.01527 1.0151   176.2     3.7    18.5
2024 04 04    13 43 39.8 +01 28 17   0.01318 1.0129   165.5    14.3    18.6
...
2024 04 10    19 09 24.4 +32 57 03   0.01863 1.0010    86.8    92.1    21.8
...
2024 04 18    20 59 21.7 +31 17 18   0.04416 0.9887    68.5   109.1    24.5
...
2024 05 03    21 44 29.5 +29 10 35   0.09445 0.9779    68.8   106.0    25.9

M. P. C. Staff               (C) Copyright 2024 MPC           M.P.E.C. 2024-G35





More information about the Iaude mailing list